Panama City, FL

5:59 PM CDT on May 23, 2017 (GMT -0500)
Northwest Florida Beaches International

Weather History for KECP - November, 2011

Change the Weather History Date:

Wednesday, November 23, 2011

  Actual Average Record
Temperature  
Mean Temperature 64 °F -  
Max Temperature 75 °F - 78 °F (2010)
Min Temperature 54 °F - 37 °F (2015)
Degree Days  
Heating Degree Days 2    
Cooling Degree Days 0    
Growing Degree Days 14 (Base 50)    
Moisture  
Dew Point 61 °F    
Average Humidity 83    
Maximum Humidity 100    
Minimum Humidity 49    
Precipitation  
Precipitation 0.18 in - 0.18 in (2011)
Month to date precipitation  
Year to date precipitation  
Sea Level Pressure  
Sea Level Pressure 30.09 in    
Wind  
Wind Speed 7 mph (WNW)    
Max Wind Speed 13 mph    
Max Gust Speed 45 mph    
Visibility 8 miles    
Events Rain , Thunderstorm    
T = Trace of Precipitation, MM = Missing Value Source: NWS Daily Summary

Daily Weather History Graph

Daily Weather History Graph

Search for Another Location

Airport or City:

Trip Planner

Search our weather history database for the weather conditions in past years. The results will help you decide how hot, cold, wet, or windy it might be!

Date:

Astronomy

Nov. 23, 2011 Rise Set
Actual Time 7:15 AM EST 5:43 PM EST
Civil Twilight 6:49 AM EST 6:09 PM EST
Nautical Twilight 6:20 AM EST 6:38 PM EST
Astronomical Twilight 5:51 AM EST 7:07 PM EST
Moon 5:22 AM EST 4:23 PM EST
Length of Visible Light 11h 19m
Length of Day
10h 28m
Waning Crescent, 4% of the Moon is Illuminated
Nov 23
Waning Crescent
Nov 25
New
Dec 2
First Quarter
Dec 10
Full
Dec 17
Last Quarter

Hourly Weather History & Observations

Time (EST) Temp. Dew Point Humidity Pressure Visibility Wind Dir Wind Speed Gust Speed Precip Events Conditions
12:53 AM 70.0 °F 68.0 °F 93% 30.08 in 10.0 mi SSW 5.8 mph - N/A   Clear
1:53 AM 70.0 °F 69.1 °F 97% 30.08 in 9.0 mi SW 6.9 mph - N/A   Scattered Clouds
2:53 AM 71.1 °F 70.0 °F 96% 30.07 in 4.0 mi WSW 4.6 mph - 0.03 in Rain Heavy Rain
2:58 AM 71.6 °F 69.8 °F 94% 30.04 in 2.5 mi West 6.9 mph - 0.02 in Rain Heavy Rain
3:00 AM 71.6 °F 69.8 °F 94% 30.04 in 2.5 mi West 9.2 mph - 0.03 in Rain , Thunderstorm Heavy Rain
3:12 AM 69.8 °F 68.0 °F 94% 30.03 in 3.0 mi SW 5.8 mph 26.5 mph 0.08 in Rain , Thunderstorm Heavy Rain
3:29 AM 69.8 °F 68.0 °F 94% 30.03 in 5.0 mi SW 10.4 mph - 0.11 in Rain , Thunderstorm Heavy Thunderstorms and Rain
3:48 AM 69.8 °F 66.2 °F 88% 30.03 in 5.0 mi SSW 9.2 mph - 0.15 in Rain Rain
3:53 AM 68.0 °F 66.9 °F 96% 30.06 in 6.0 mi SSW 9.2 mph - 0.15 in Rain Rain
4:00 AM 68.0 °F 66.2 °F 94% 30.01 in 6.0 mi South 5.8 mph - 0.00 in Rain Rain
4:53 AM 66.9 °F 66.0 °F 97% 30.04 in 10.0 mi South 3.5 mph - N/A   Mostly Cloudy
5:53 AM 66.2 °F 64.4 °F 94% 30.02 in 9.0 mi SW 3.5 mph - N/A   Overcast
6:20 AM 66.2 °F 64.4 °F 94% 30.03 in 10.0 mi SSW 4.6 mph - N/A   Overcast
6:49 AM 66.2 °F 66.2 °F 100% 30.03 in 8.0 mi WNW 5.8 mph - N/A   Overcast
6:53 AM 66.2 °F 66.2 °F 100% 30.04 in 6.0 mi WNW 6.9 mph - N/A Rain Light Rain
6:58 AM 66.2 °F 66.2 °F 100% 30.04 in 6.0 mi WNW 4.6 mph - 0.00 in Rain Light Rain
7:53 AM 66.9 °F 64.9 °F 93% 30.09 in 10.0 mi NW 5.8 mph - 0.00 in   Overcast
8:48 AM 66.2 °F 64.4 °F 94% 30.08 in 10.0 mi NNW 5.8 mph - N/A   Scattered Clouds
8:53 AM 66.9 °F 64.0 °F 90% 30.12 in 10.0 mi NNW 6.9 mph - N/A   Scattered Clouds
9:31 AM 68.0 °F 62.6 °F 83% 30.10 in 10.0 mi NW 8.1 mph - N/A   Mostly Cloudy
9:38 AM 68.0 °F 62.6 °F 83% 30.10 in 10.0 mi NW 8.1 mph - N/A   Mostly Cloudy
9:53 AM 69.1 °F 63.0 °F 81% 30.14 in 10.0 mi WNW 9.2 mph 17.3 mph N/A   Mostly Cloudy
10:53 AM 69.1 °F 61.0 °F 75% 30.14 in 10.0 mi NNW 11.5 mph - N/A   Mostly Cloudy
11:00 AM 69.8 °F 60.8 °F 73% 30.10 in 10.0 mi NNW 10.4 mph - N/A   Overcast
11:53 AM 71.1 °F 61.0 °F 70% 30.13 in 10.0 mi North 6.9 mph - N/A   Mostly Cloudy
12:53 PM 73.9 °F 57.9 °F 57% 30.10 in 10.0 mi North 9.2 mph - N/A   Partly Cloudy
1:00 PM 73.4 °F 59.0 °F 61% 30.06 in 10.0 mi NW 9.2 mph 17.3 mph N/A   Partly Cloudy
1:53 PM 73.9 °F 55.0 °F 52% 30.09 in 10.0 mi NNW 11.5 mph 44.9 mph N/A   Partly Cloudy
2:53 PM 73.9 °F 55.0 °F 52% 30.07 in 10.0 mi NNW 9.2 mph 17.3 mph N/A   Clear
3:53 PM 73.0 °F 53.1 °F 49% 30.08 in 10.0 mi NW 12.7 mph - N/A   Clear
4:53 PM 71.1 °F 54.0 °F 55% 30.09 in 10.0 mi NNW 5.8 mph - N/A   Clear
5:53 PM 64.9 °F 53.1 °F 65% 30.12 in 10.0 mi NNW 8.1 mph - N/A   Clear
6:53 PM 60.1 °F 53.1 °F 78% 30.15 in 10.0 mi NW 6.9 mph - N/A   Clear
7:53 PM 57.9 °F 52.0 °F 81% 30.17 in 10.0 mi NNW 8.1 mph - N/A   Clear
8:53 PM 55.9 °F 52.0 °F 87% 30.20 in 10.0 mi Calm Calm - N/A   Clear
9:53 PM 55.9 °F 50.0 °F 80% 30.21 in 10.0 mi NNW 6.9 mph - N/A   Clear
10:53 PM 54.0 °F 48.9 °F 83% 30.21 in 10.0 mi NNW 6.9 mph - N/A   Clear
11:53 PM 54.0 °F 48.9 °F 83% 30.21 in 10.0 mi NNW 6.9 mph - N/A   Clear